Location: Cossonay
(46.5833°N, 6.4167°E)
Time: 04:25:09
(UTC+00:00)

Cosmos 1400 Rocket - Pass Details

Date: 07 June 2020
Orbit: 522 x 568 km, 81.2° (Epoch: 04 July)

Event Time Altitude Azimuth Distance (km) Brightness Sun altitude
Rises 01:37:56 0° 337° (NNW) 2,779 7.0 -15.1°
Reaches altitude 10° 01:40:23 10° 325° (NW) 1,876 5.8 -14.9°
Maximum altitude 01:43:48 25° 269° (W) 1,159 4.2 -14.6°
Enters shadow 01:45:05 21° 240° (WSW) 1,281 4.2 -14.5°
